Location: *
(50.8512°N, 5.6907°E)
Time: 22:56:26
(UTC+00:00)

RESURS DK-1 - Pass Details

Date: 09 April 2020
Orbit: 557 x 561 km, 69.9° (Epoch: 27 May)

Event Time Altitude Azimuth Distance (km) Brightness Sun altitude
Rises 20:43:15 0° 328° (NNW) 2,763 7.3 -20.1°
Reaches altitude 10° 20:45:28 10° 328° (NNW) 1,862 6.1 -20.3°
Maximum altitude 20:49:39 86° 239° (WSW) 569 2.3 -20.8°
Enters shadow 20:50:16 64° 158° (SSE) 627 2.3 -20.9°
